| time (UTC) | temp F | wind direction | speed MPH | gust MPH | rain 1hr in | rain 24hr in | rain mn in | humidity % | barometer mb |
| 20260906220516 | 86 | 35 | 11.0 | 18.0 | 0.00 | 0.05 | 0.05 | 52 | 1013.0 |
| 20260906220059 | 86 | 34 | 9.0 | 17.0 | 0.00 | 0.05 | 0.05 | 52 | 1013.0 |
| 20260906215611 | 86 | 34 | 12.0 | 18.0 | 0.00 | 0.05 | 0.05 | 53 | 1013.0 |
| 20260906215528 | 86 | 34 | 12.0 | 18.0 | 0.00 | 0.05 | 0.05 | 53 | 1013.0 |
| 20260906215021 | 86 | 34 | 11.0 | 18.0 | 0.00 | 0.05 | 0.05 | 55 | 1013.1 |
| 20260906214543 | 86 | 35 | 12.0 | 19.0 | 0.00 | 0.05 | 0.05 | 55 | 1013.1 |
| 20260906214037 | 86 | 38 | 10.0 | 19.0 | 0.00 | 0.05 | 0.05 | 57 | 1013.1 |
| 20260906213529 | 86 | 35 | 12.0 | 18.0 | 0.00 | 0.05 | 0.05 | 58 | 1013.0 |
| 20260906213028 | 85 | 35 | 10.0 | 19.0 | 0.00 | 0.05 | 0.05 | 59 | 1013.2 |
| 20260906212523 | 85 | 36 | 11.0 | 19.0 | 0.00 | 0.05 | 0.05 | 61 | 1013.2 |
| 20260906212035 | 84 | 32 | 10.0 | 20.0 | 0.00 | 0.05 | 0.05 | 61 | 1013.3 |
| 20260906211534 | 84 | 35 | 11.0 | 20.0 | 0.00 | 0.05 | 0.05 | 61 | 1013.4 |
| 20260906211026 | 84 | 35 | 13.0 | 20.0 | 0.00 | 0.05 | 0.05 | 62 | 1013.3 |
| 20260906210524 | 84 | 36 | 12.0 | 21.0 | 0.00 | 0.05 | 0.05 | 62 | 1013.4 |
| 20260906210041 | 84 | 35 | 13.0 | 20.0 | 0.00 | 0.05 | 0.05 | 62 | 1013.4 |
| 20260906205553 | 84 | 38 | 13.0 | 21.0 | 0.00 | 0.05 | 0.05 | 62 | 1013.5 |
| 20260906205046 | 84 | 36 | 15.0 | 22.0 | 0.00 | 0.05 | 0.05 | 62 | 1013.6 |
| 20260906204544 | 84 | 35 | 13.0 | 25.0 | 0.00 | 0.05 | 0.05 | 61 | 1013.7 |
| 20260906204043 | 84 | 35 | 15.0 | 25.0 | 0.00 | 0.05 | 0.05 | 64 | 1013.8 |
| 20260906203612 | 83 | 36 | 16.0 | 27.0 | 0.00 | 0.05 | 0.05 | 64 | 1013.8 |
| 20260906203049 | 83 | 35 | 17.0 | 27.0 | 0.00 | 0.05 | 0.05 | 64 | 1013.8 |
| 20260906202521 | 83 | 37 | 15.0 | 24.0 | 0.00 | 0.05 | 0.05 | 64 | 1013.9 |
| 20260906202036 | 82 | 35 | 17.0 | 24.0 | 0.00 | 0.05 | 0.05 | 65 | 1014.1 |
| 20260906201537 | 82 | 35 | 16.0 | 23.0 | 0.00 | 0.05 | 0.05 | 66 | 1014.2 |
| 20260906201013 | 82 | 35 | 18.0 | 26.0 | 0.00 | 0.05 | 0.05 | 66 | 1014.2 |
| 20260906200528 | 81 | 34 | 16.0 | 26.0 | 0.00 | 0.05 | 0.05 | 66 | 1014.3 |
| 20260906200027 | 81 | 36 | 15.0 | 22.0 | 0.00 | 0.05 | 0.05 | 66 | 1014.3 |
| 20260906195559 | 81 | 36 | 14.0 | 27.0 | 0.00 | 0.05 | 0.05 | 66 | 1014.5 |
| 20260906195516 | 81 | 36 | 14.0 | 27.0 | 0.00 | 0.05 | 0.05 | 66 | 1014.5 |
| 20260906195051 | 81 | 38 | 16.0 | 22.0 | 0.00 | 0.05 | 0.05 | 67 | 1014.6 |
| 20260906194529 | 80 | 35 | 13.0 | 20.0 | 0.00 | 0.05 | 0.05 | 68 | 1014.7 |
| 20260906194022 | 80 | 35 | 10.0 | 20.0 | 0.00 | 0.05 | 0.05 | 70 | 1014.8 |
| 20260906193556 | 79 | 38 | 13.0 | 19.0 | 0.00 | 0.05 | 0.05 | 72 | 1014.8 |
| 20260906193012 | 79 | 35 | 13.0 | 19.0 | 0.00 | 0.05 | 0.05 | 72 | 1014.9 |
| 20260906192604 | 78 | 34 | 8.0 | 15.0 | 0.00 | 0.05 | 0.05 | 76 | 1014.9 |
| 20260906192522 | 78 | 34 | 8.0 | 15.0 | 0.00 | 0.05 | 0.05 | 76 | 1014.9 |
| 20260906192015 | 77 | 37 | 5.0 | 15.0 | 0.01 | 0.05 | 0.05 | 80 | 1015.1 |
| 20260906191516 | 75 | 35 | 3.0 | 7.0 | 0.01 | 0.05 | 0.05 | 82 | 1015.1 |
| 20260906191110 | 75 | 34 | 1.0 | 5.0 | 0.01 | 0.05 | 0.05 | 82 | 1015.2 |
| 20260906191027 | 75 | 34 | 1.0 | 5.0 | 0.01 | 0.05 | 0.05 | 82 | 1015.2 |
| 20260906190601 | 75 | 35 | 1.0 | 5.0 | 0.01 | 0.05 | 0.05 | 81 | 1015.3 |
| 20260906190058 | 75 | 34 | 3.0 | 6.0 | 0.01 | 0.05 | 0.05 | 81 | 1015.2 |
| 20260906190015 | 75 | 34 | 3.0 | 6.0 | 0.01 | 0.05 | 0.05 | 81 | 1015.2 |
| 20260906185513 | 75 | 35 | 4.0 | 6.0 | 0.01 | 0.05 | 0.05 | 80 | 1015.3 |
| 20260906185103 | 75 | 36 | 3.0 | 6.0 | 0.01 | 0.05 | 0.05 | 80 | 1015.3 |
| 20260906184521 | 75 | 35 | 4.0 | 6.0 | 0.01 | 0.05 | 0.05 | 80 | 1015.4 |
| 20260906184035 | 75 | 35 | 2.0 | 4.0 | 0.01 | 0.05 | 0.05 | 80 | 1015.4 |
| 20260906183531 | 75 | 32 | 3.0 | 4.0 | 0.01 | 0.05 | 0.05 | 79 | 1015.4 |
| 20260906183051 | 75 | 36 | 2.0 | 8.0 | 0.01 | 0.05 | 0.05 | 79 | 1015.5 |
| 20260906182545 | 74 | 35 | 3.0 | 8.0 | 0.01 | 0.05 | 0.05 | 80 | 1015.5 |
| 20260906182113 | 74 | 36 | 2.0 | 3.0 | 0.00 | 0.04 | 0.04 | 80 | 1015.5 |
| 20260906182030 | 74 | 36 | 2.0 | 3.0 | 0.00 | 0.04 | 0.04 | 80 | 1015.5 |
| 20260906181550 | 74 | 38 | 1.0 | 4.0 | 0.00 | 0.04 | 0.04 | 80 | 1015.5 |
| 20260906181043 | 74 | 38 | 1.0 | 4.0 | 0.00 | 0.04 | 0.04 | 77 | 1015.6 |
| 20260906180515 | 74 | 35 | 2.0 | 4.0 | 0.00 | 0.04 | 0.04 | 77 | 1015.6 |
| 20260906180015 | 74 | 36 | 1.0 | 4.0 | 0.00 | 0.04 | 0.04 | 77 | 1015.7 |
| 20260906175549 | 74 | 37 | 2.0 | 5.0 | 0.00 | 0.04 | 0.04 | 75 | 1015.6 |
| 20260906175021 | 75 | 35 | 2.0 | 6.0 | 0.00 | 0.04 | 0.04 | 74 | 1015.6 |
| 20260906174604 | 75 | 36 | 4.0 | 8.0 | 0.00 | 0.04 | 0.04 | 73 | 1015.5 |
| 20260906174521 | 75 | 36 | 4.0 | 8.0 | 0.00 | 0.04 | 0.04 | 73 | 1015.5 |
| 20260906174034 | 75 | 37 | 3.0 | 9.0 | 0.00 | 0.04 | 0.04 | 71 | 1015.5 |
| 20260906173548 | 75 | 37 | 2.0 | 9.0 | 0.00 | 0.04 | 0.04 | 71 | 1015.4 |
| 20260906173047 | 75 | 34 | 4.0 | 9.0 | 0.00 | 0.04 | 0.04 | 70 | 1015.4 |
| 20260906172519 | 75 | 35 | 2.0 | 8.0 | 0.00 | 0.04 | 0.04 | 70 | 1015.4 |
| 20260906172113 | 75 | 35 | 3.0 | 8.0 | 0.00 | 0.04 | 0.04 | 71 | 1015.4 |
| 20260906171528 | 76 | 36 | 3.0 | 6.0 | 0.00 | 0.04 | 0.04 | 71 | 1015.4 |
| 20260906171101 | 76 | 32 | 2.0 | 5.0 | 0.00 | 0.04 | 0.04 | 73 | 1015.3 |
| 20260906170532 | 76 | 34 | 3.0 | 5.0 | 0.00 | 0.04 | 0.04 | 73 | 1015.2 |
| 20260906170033 | 76 | 35 | 3.0 | 5.0 | 0.00 | 0.04 | 0.04 | 73 | 1015.1 |
| 20260906165525 | 76 | 35 | 3.0 | 9.0 | 0.00 | 0.04 | 0.04 | 70 | 1015.1 |
| 20260906165038 | 77 | 36 | 5.0 | 9.0 | 0.00 | 0.04 | 0.04 | 70 | 1015.0 |
| 20260906164600 | 77 | 35 | 3.0 | 5.0 | 0.00 | 0.04 | 0.04 | 70 | 1014.9 |
| 20260906164517 | 77 | 35 | 3.0 | 5.0 | 0.00 | 0.04 | 0.04 | 70 | 1014.9 |
| 20260906164111 | 77 | 38 | 2.0 | 6.0 | 0.00 | 0.04 | 0.04 | 71 | 1014.8 |
| 20260906163602 | 76 | 36 | 3.0 | 6.0 | 0.00 | 0.04 | 0.04 | 74 | 1014.8 |
| 20260906163042 | 75 | 37 | 0.0 | 2.0 | 0.00 | 0.04 | 0.04 | 77 | 1014.7 |
| 20260906162515 | 75 | 38 | 0.0 | 2.0 | 0.00 | 0.04 | 0.04 | 77 | 1014.8 |
| 20260906162029 | 75 | 32 | 0.0 | 3.0 | 0.00 | 0.04 | 0.04 | 77 | 1014.8 |
| 20260906161549 | 74 | 36 | 1.0 | 4.0 | 0.00 | 0.04 | 0.04 | 77 | 1014.8 |
| 20260906161102 | 74 | 35 | 2.0 | 4.0 | 0.00 | 0.04 | 0.04 | 77 | 1014.8 |
| 20260906160533 | 74 | 36 | 1.0 | 2.0 | 0.00 | 0.04 | 0.04 | 78 | 1014.7 |
| 20260906160030 | 74 | 37 | 0.0 | 0.0 | 0.00 | 0.04 | 0.04 | 78 | 1014.7 |
| 20260906155604 | 74 | 38 | 0.0 | 1.0 | 0.00 | 0.04 | 0.04 | 77 | 1014.7 |
| 20260906155522 | 74 | 38 | 0.0 | 1.0 | 0.00 | 0.04 | 0.04 | 77 | 1014.7 |
| 20260906155015 | 74 | 34 | 0.0 | 2.0 | 0.00 | 0.04 | 0.04 | 77 | 1014.7 |
| 20260906154514 | 73 | 38 | 0.0 | 2.0 | 0.00 | 0.04 | 0.04 | 76 | 1014.7 |
| 20260906154047 | 74 | 35 | 1.0 | 2.0 | 0.00 | 0.04 | 0.04 | 77 | 1014.7 |
| 20260906153541 | 73 | 38 | 1.0 | 2.0 | 0.00 | 0.04 | 0.04 | 77 | 1014.7 |
| 20260906153039 | 73 | 36 | 1.0 | 2.0 | 0.00 | 0.04 | 0.04 | 78 | 1014.7 |
| 20260906152551 | 72 | 34 | 0.0 | 1.0 | 0.00 | 0.04 | 0.04 | 77 | 1014.7 |
| 20260906152042 | 72 | 36 | 0.0 | 2.0 | 0.00 | 0.04 | 0.04 | 77 | 1014.7 |
| 20260906151543 | 72 | 35 | 1.0 | 2.0 | 0.00 | 0.04 | 0.04 | 78 | 1014.7 |
| 20260906151112 | 72 | 34 | 1.0 | 2.0 | 0.00 | 0.04 | 0.04 | 77 | 1014.7 |
| 20260906151029 | 72 | 34 | 1.0 | 2.0 | 0.00 | 0.04 | 0.04 | 77 | 1014.7 |
| 20260906150544 | 72 | 35 | 1.0 | 2.0 | 0.00 | 0.04 | 0.04 | 78 | 1014.6 |
| 20260906150028 | 72 | 36 | 2.0 | 2.0 | 0.00 | 0.04 | 0.04 | 77 | 1014.6 |
| 20260906145522 | 72 | 36 | 0.0 | 2.0 | 0.00 | 0.04 | 0.04 | 78 | 1014.6 |
| 20260906145015 | 72 | 35 | 0.0 | 2.0 | 0.00 | 0.04 | 0.04 | 78 | 1014.5 |
| 20260906144515 | 72 | 38 | 2.0 | 3.0 | 0.00 | 0.04 | 0.04 | 78 | 1014.4 |
| 20260906144050 | 72 | 35 | 2.0 | 3.0 | 0.00 | 0.04 | 0.04 | 77 | 1014.4 |
| 20260906143603 | 73 | 34 | 1.0 | 3.0 | 0.00 | 0.04 | 0.04 | 76 | 1014.4 |
| 20260906143114 | 73 | 35 | 2.0 | 3.0 | 0.00 | 0.04 | 0.04 | 75 | 1014.4 |
| 20260906143031 | 73 | 35 | 2.0 | 3.0 | 0.00 | 0.04 | 0.04 | 75 | 1014.4 |
| 20260906142546 | 73 | 38 | 0.0 | 4.0 | 0.00 | 0.04 | 0.04 | 74 | 1014.2 |
| 20260906142041 | 73 | 37 | 3.0 | 4.0 | 0.00 | 0.04 | 0.04 | 74 | 1014.3 |
| 20260906141602 | 74 | 36 | 2.0 | 4.0 | 0.00 | 0.04 | 0.04 | 77 | 1014.2 |
| 20260906141033 | 74 | 38 | 2.0 | 4.0 | 0.00 | 0.04 | 0.04 | 75 | 1014.1 |
| 20260906140527 | 74 | 32 | 1.0 | 2.0 | 0.00 | 0.04 | 0.04 | 72 | 1014.0 |
| 20260906140027 | 73 | 36 | 0.0 | 0.0 | 0.00 | 0.04 | 0.04 | 73 | 1013.9 |
| 20260906135521 | 73 | 35 | 0.0 | 0.0 | 0.00 | 0.04 | 0.04 | 76 | 1013.9 |
| 20260906135115 | 73 | 34 | 0.0 | 0.0 | 0.00 | 0.04 | 0.04 | 75 | 1013.9 |
| 20260906134533 | 74 | 35 | 0.0 | 0.0 | 0.00 | 0.04 | 0.04 | 75 | 1013.7 |
| 20260906134046 | 74 | 35 | 0.0 | 0.0 | 0.00 | 0.04 | 0.04 | 75 | 1013.6 |
| 20260906133558 | 73 | 36 | 0.0 | 0.0 | 0.00 | 0.04 | 0.04 | 74 | 1013.5 |
| 20260906133516 | 73 | 36 | 0.0 | 0.0 | 0.00 | 0.04 | 0.04 | 74 | 1013.5 |
| 20260906133014 | 73 | 38 | 0.0 | 1.0 | 0.00 | 0.04 | 0.04 | 75 | 1013.5 |
| 20260906132527 | 73 | 35 | 0.0 | 2.0 | 0.00 | 0.04 | 0.04 | 77 | 1013.5 |
| 20260906132021 | 73 | 36 | 1.0 | 2.0 | 0.00 | 0.04 | 0.04 | 78 | 1013.5 |
| 20260906131541 | 73 | 35 | 0.0 | 2.0 | 0.00 | 0.04 | 0.04 | 77 | 1013.3 |
| 20260906131113 | 73 | 35 | 2.0 | 2.0 | 0.00 | 0.04 | 0.04 | 75 | 1013.3 |
| 20260906130604 | 73 | 38 | 0.0 | 2.0 | 0.00 | 0.04 | 0.04 | 72 | 1013.2 |
| 20260906130023 | 73 | 35 | 0.0 | 2.0 | 0.00 | 0.04 | 0.04 | 75 | 1013.1 |
| 20260906125517 | 73 | 35 | 0.0 | 4.0 | 0.00 | 0.04 | 0.04 | 73 | 1013.2 |
| 20260906125111 | 73 | 35 | 1.0 | 4.0 | 0.00 | 0.04 | 0.04 | 73 | 1013.1 |
| 20260906124527 | 72 | 38 | 2.0 | 4.0 | 0.00 | 0.04 | 0.04 | 75 | 1013.1 |
| 20260906124059 | 72 | 36 | 0.0 | 0.0 | 0.00 | 0.04 | 0.04 | 78 | 1013.3 |
| 20260906123553 | 72 | 35 | 0.0 | 0.0 | 0.00 | 0.04 | 0.04 | 78 | 1013.2 |
| 20260906123032 | 72 | 35 | 0.0 | 0.0 | 0.00 | 0.04 | 0.04 | 77 | 1013.2 |
| 20260906122605 | 71 | 35 | 0.0 | 0.0 | 0.00 | 0.04 | 0.04 | 78 | 1013.1 |
| 20260906122017 | 71 | 36 | 0.0 | 1.0 | 0.00 | 0.04 | 0.04 | 78 | 1013.2 |
| 20260906121537 | 71 | 38 | 0.0 | 2.0 | 0.00 | 0.04 | 0.04 | 77 | 1013.2 |
| 20260906121049 | 71 | 35 | 0.0 | 2.0 | 0.00 | 0.04 | 0.04 | 76 | 1013.3 |
| 20260906120543 | 71 | 35 | 0.0 | 2.0 | 0.01 | 0.04 | 0.04 | 76 | 1013.2 |
| 20260906120115 | 71 | 35 | 0.0 | 0.0 | 0.01 | 0.04 | 0.04 | 77 | 1013.2 |
| 20260906115526 | 71 | 34 | 0.0 | 0.0 | 0.01 | 0.04 | 0.04 | 77 | 1013.3 |
| 20260906115020 | 71 | 36 | 0.0 | 0.0 | 0.01 | 0.04 | 0.04 | 74 | 1013.3 |
| 20260906114601 | 71 | 34 | 0.0 | 2.0 | 0.01 | 0.04 | 0.04 | 73 | 1013.3 |
| 20260906114518 | 71 | 34 | 0.0 | 2.0 | 0.01 | 0.04 | 0.04 | 73 | 1013.3 |
| 20260906114053 | 72 | 36 | 0.0 | 2.0 | 0.01 | 0.04 | 0.04 | 71 | 1013.4 |
| 20260906113607 | 72 | 35 | 1.0 | 4.0 | 0.01 | 0.04 | 0.04 | 72 | 1013.4 |
| 20260906113107 | 71 | 36 | 3.0 | 4.0 | 0.01 | 0.04 | 0.04 | 71 | 1013.2 |
| 20260906112518 | 71 | 36 | 0.0 | 2.0 | 0.01 | 0.04 | 0.04 | 70 | 1013.3 |
| 20260906112031 | 71 | 36 | 0.0 | 2.0 | 0.01 | 0.04 | 0.04 | 72 | 1013.5 |
| 20260906111530 | 72 | 36 | 0.0 | 2.0 | 0.01 | 0.04 | 0.04 | 69 | 1013.5 |
| 20260906111043 | 72 | 34 | 1.0 | 2.0 | 0.01 | 0.04 | 0.04 | 63 | 1013.5 |
| 20260906110616 | 71 | 38 | 1.0 | 2.0 | 0.00 | 0.03 | 0.03 | 61 | 1013.5 |
| 20260906110534 | 71 | 38 | 1.0 | 2.0 | 0.00 | 0.03 | 0.03 | 61 | 1013.5 |
| 20260906110054 | 70 | 36 | 0.0 | 2.0 | 0.00 | 0.03 | 0.03 | 70 | 1013.6 |
| 20260906105547 | 71 | 35 | 1.0 | 2.0 | 0.00 | 0.03 | 0.03 | 75 | 1013.5 |
| 20260906105020 | 71 | 38 | 0.0 | 2.0 | 0.00 | 0.03 | 0.03 | 70 | 1013.6 |
| 20260906104540 | 71 | 35 | 0.0 | 0.0 | 0.00 | 0.03 | 0.03 | 70 | 1013.8 |
| 20260906104053 | 71 | 36 | 0.0 | 0.0 | 0.00 | 0.03 | 0.03 | 70 | 1013.7 |
| 20260906103545 | 71 | 35 | 0.0 | 2.0 | 0.00 | 0.03 | 0.03 | 73 | 1013.7 |
| 20260906103103 | 71 | 36 | 0.0 | 2.0 | 0.00 | 0.03 | 0.03 | 70 | 1013.6 |
| 20260906103020 | 71 | 36 | 0.0 | 2.0 | 0.00 | 0.03 | 0.03 | 70 | 1013.6 |
| 20260906102539 | 71 | 37 | 0.0 | 2.0 | 0.00 | 0.03 | 0.03 | 68 | 1013.5 |
| 20260906102032 | 70 | 35 | 0.0 | 2.0 | 0.00 | 0.03 | 0.03 | 72 | 1013.4 |
| 20260906101530 | 71 | 38 | 0.0 | 1.0 | 0.00 | 0.03 | 0.03 | 74 | 1013.5 |
| 20260906101103 | 71 | 34 | 0.0 | 3.0 | 0.00 | 0.03 | 0.03 | 73 | 1013.6 |
| 20260906100533 | 71 | 35 | 1.0 | 3.0 | 0.00 | 0.03 | 0.03 | 69 | 1013.5 |
| 20260906100031 | 70 | 35 | 1.0 | 2.0 | 0.00 | 0.03 | 0.03 | 70 | 1013.4 |
| 20260906095522 | 70 | 37 | 1.0 | 2.0 | 0.00 | 0.03 | 0.03 | 70 | 1013.5 |
| 20260906095015 | 70 | 37 | 1.0 | 2.0 | 0.00 | 0.03 | 0.03 | 73 | 1013.5 |
| 20260906094516 | 70 | 36 | 0.0 | 2.0 | 0.01 | 0.03 | 0.03 | 70 | 1013.5 |
| 20260906094110 | 69 | 35 | 1.0 | 1.0 | 0.02 | 0.03 | 0.03 | 75 | 1013.5 |
| 20260906094028 | 69 | 35 | 1.0 | 1.0 | 0.02 | 0.03 | 0.03 | 75 | 1013.5 |
| 20260906093541 | 69 | 36 | 0.0 | 0.0 | 0.02 | 0.03 | 0.03 | 74 | 1013.7 |
| 20260906093036 | 69 | 34 | 0.0 | 1.0 | 0.02 | 0.03 | 0.03 | 77 | 1013.8 |
| 20260906092549 | 69 | 35 | 0.0 | 2.0 | 0.03 | 0.03 | 0.03 | 74 | 1013.7 |
| 20260906092101 | 70 | 35 | 0.0 | 2.0 | 0.03 | 0.03 | 0.03 | 71 | 1013.7 |
| 20260906091611 | 69 | 35 | 0.0 | 2.0 | 0.03 | 0.03 | 0.03 | 70 | 1013.7 |
| 20260906091041 | 69 | 35 | 1.0 | 2.0 | 0.03 | 0.03 | 0.03 | 76 | 1013.7 |
| 20260906090553 | 69 | 36 | 1.0 | 2.0 | 0.03 | 0.03 | 0.03 | 73 | 1013.6 |
| 20260906090053 | 69 | 34 | 0.0 | 2.0 | 0.03 | 0.03 | 0.03 | 72 | 1013.7 |
| 20260906085607 | 70 | 34 | 1.0 | 2.0 | 0.03 | 0.03 | 0.03 | 75 | 1013.8 |
| 20260906085524 | 70 | 34 | 1.0 | 2.0 | 0.03 | 0.03 | 0.03 | 75 | 1013.8 |
| 20260906085039 | 71 | 35 | 1.0 | 2.0 | 0.03 | 0.03 | 0.03 | 73 | 1013.8 |
| 20260906084518 | 72 | 32 | 2.0 | 2.0 | 0.02 | 0.02 | 0.02 | 68 | 1013.9 |
| 20260906084051 | 72 | 35 | 0.0 | 2.0 | 0.01 | 0.01 | 0.01 | 68 | 1014.2 |
| 20260906083523 | 73 | 35 | 0.0 | 1.0 | 0.01 | 0.01 | 0.01 | 67 | 1014.2 |
| 20260906083114 | 74 | 32 | 0.0 | 2.0 | 0.01 | 0.01 | 0.01 | 58 | 1014.2 |
| 20260906083031 | 74 | 32 | 0.0 | 2.0 | 0.01 | 0.01 | 0.01 | 58 | 1014.2 |
| 20260906082546 | 74 | 34 | 0.0 | 3.0 | 0.00 | 0.00 | 0.00 | 55 | 1014.1 |
| 20260906082017 | 75 | 35 | 2.0 | 3.0 | 0.00 | 0.00 | 0.00 | 53 | 1014.0 |
| 20260906081537 | 75 | 35 | 2.0 | 2.0 | 0.00 | 0.00 | 0.00 | 50 | 1014.1 |
| 20260906081029 | 75 | 34 | 0.0 | 2.0 | 0.00 | 0.00 | 0.00 | 49 | 1014.1 |
| 20260906080541 | 76 | 32 | 0.0 | 2.0 | 0.00 | 0.00 | 0.00 | 51 | 1014.1 |
| 20260906080113 | 76 | 35 | 0.0 | 2.0 | 0.00 | 0.00 | 0.00 | 51 | 1014.1 |
| 20260906075605 | 77 | 35 | 0.0 | 2.0 | 0.00 | 0.00 | 0.00 | 46 | 1014.1 |
| 20260906075057 | 76 | 35 | 0.0 | 2.0 | 0.00 | 0.00 | 0.00 | 45 | 1014.0 |
| 20260906075014 | 76 | 35 | 0.0 | 2.0 | 0.00 | 0.00 | 0.00 | 45 | 1014.0 |
| 20260906074533 | 76 | 35 | 0.0 | 2.0 | 0.00 | 0.00 | 0.00 | 50 | 1014.0 |
| 20260906074106 | 76 | 35 | 1.0 | 2.0 | 0.00 | 0.00 | 0.00 | 58 | 1014.0 |
| 20260906073537 | 76 | 34 | 0.0 | 0.0 | 0.00 | 0.00 | 0.00 | 59 | 1014.0 |
| 20260906073015 | 76 | 35 | 0.0 | 0.0 | 0.00 | 0.00 | 0.00 | 59 | 1014.1 |
| 20260906072603 | 75 | 35 | 0.0 | 0.0 | 0.00 | 0.00 | 0.00 | 55 | 1014.2 |
| 20260906072520 | 75 | 35 | 0.0 | 0.0 | 0.00 | 0.00 | 0.00 | 55 | 1014.2 |
| 20260906072037 | 75 | 36 | 0.0 | 0.0 | 0.00 | 0.00 | 0.00 | 55 | 1014.0 |
| 20260906071536 | 75 | 34 | 0.0 | 0.0 | 0.00 | 0.00 | 0.00 | 57 | 1014.1 |
| 20260906071029 | 76 | 36 | 0.0 | 0.0 | 0.00 | 0.00 | 0.00 | 59 | 1014.1 |
| 20260906070558 | 76 | 35 | 0.0 | 0.0 | 0.00 | 0.00 | 0.00 | 58 | 1014.1 |
| 20260906070516 | 76 | 35 | 0.0 | 0.0 | 0.00 | 0.00 | 0.00 | 58 | 1014.1 |
| 20260906070020 | 76 | 37 | 0.0 | 0.0 | 0.00 | 0.00 | 0.00 | 58 | 1014.0 |
| 20260906065535 | 76 | 36 | 0.0 | 0.0 | 0.00 | 0.00 | 0.00 | 58 | 1014.0 |
| 20260906065027 | 76 | 37 | 0.0 | 0.0 | 0.00 | 0.00 | 0.00 | 58 | 1014.0 |
| 20260906064606 | 76 | 37 | 0.0 | 0.0 | 0.00 | 0.00 | 0.00 | 57 | 1014.0 |
| 20260906064523 | 76 | 37 | 0.0 | 0.0 | 0.00 | 0.00 | 0.00 | 57 | 1014.0 |
| 20260906064021 | 76 | 37 | 0.0 | 2.0 | 0.00 | 0.00 | 0.00 | 57 | 1013.9 |
| 20260906063514 | 76 | 36 | 1.0 | 2.0 | 0.00 | 0.00 | 0.00 | 57 | 1014.1 |
| 20260906063013 | 76 | 32 | 1.0 | 3.0 | 0.00 | 0.00 | 0.00 | 58 | 1014.1 |
| 20260906062548 | 76 | 38 | 2.0 | 3.0 | 0.00 | 0.00 | 0.00 | 59 | 1014.1 |
| 20260906062101 | 76 | 34 | 2.0 | 3.0 | 0.00 | 0.00 | 0.00 | 56 | 1014.1 |
| 20260906062018 | 76 | 34 | 2.0 | 3.0 | 0.00 | 0.00 | 0.00 | 56 | 1014.1 |
| 20260906061519 | 77 | 36 | 1.0 | 2.0 | 0.00 | 0.00 | 0.00 | 51 | 1014.1 |
| 20260906061033 | 77 | 37 | 1.0 | 3.0 | 0.00 | 0.00 | 0.00 | 48 | 1013.9 |
| 20260906060607 | 77 | 35 | 1.0 | 3.0 | 0.00 | 0.00 | 0.00 | 46 | 1013.9 |
| 20260906060524 | 77 | 35 | 1.0 | 3.0 | 0.00 | 0.00 | 0.00 | 46 | 1013.9 |
| 20260906060059 | 78 | 35 | 0.0 | 3.0 | 0.00 | 0.00 | 0.00 | 41 | 1013.9 |
| 20260906055514 | 78 | 35 | 2.0 | 3.0 | 0.00 | 0.00 | 0.00 | 40 | 1013.9 |
| 20260906055105 | 78 | 37 | 2.0 | 3.0 | 0.00 | 0.00 | 0.00 | 37 | 1014.0 |
| 20260906055022 | 78 | 37 | 2.0 | 3.0 | 0.00 | 0.00 | 0.00 | 37 | 1014.0 |
| 20260906054523 | 78 | 38 | 0.0 | 1.0 | 0.00 | 0.00 | 0.00 | 38 | 1014.0 |
| 20260906054020 | 78 | 35 | 1.0 | 1.0 | 0.00 | 0.00 | 0.00 | 37 | 1013.9 |
| 20260906053513 | 78 | 35 | 0.0 | 0.0 | 0.00 | 0.00 | 0.00 | 37 | 1014.0 |
| 20260906053053 | 78 | 35 | 0.0 | 0.0 | 0.00 | 0.00 | 0.00 | 38 | 1014.1 |
| 20260906052548 | 79 | 35 | 0.0 | 0.0 | 0.00 | 0.00 | 0.00 | 38 | 1014.1 |
| 20260906052102 | 78 | 35 | 0.0 | 0.0 | 0.00 | 0.00 | 0.00 | 39 | 1014.0 |
| 20260906052019 | 78 | 35 | 0.0 | 0.0 | 0.00 | 0.00 | 0.00 | 39 | 1014.0 |
| 20260906051557 | 78 | 35 | 0.0 | 0.0 | 0.00 | 0.00 | 0.00 | 40 | 1014.0 |
| 20260906051515 | 78 | 35 | 0.0 | 0.0 | 0.00 | 0.00 | 0.00 | 40 | 1014.0 |
| 20260906051027 | 78 | 32 | 0.0 | 0.0 | 0.00 | 0.00 | 0.00 | 39 | 1014.0 |
| 20260906050541 | 78 | 34 | 0.0 | 0.0 | 0.00 | 0.00 | 0.00 | 38 | 1014.0 |
| 20260906050111 | 78 | 35 | 0.0 | 2.0 | 0.00 | 0.00 | 0.00 | 40 | 1014.1 |
| 20260906045522 | 78 | 35 | 0.0 | 2.0 | 0.00 | 0.00 | 0.00 | 39 | 1014.1 |
| 20260906045056 | 78 | 35 | 0.0 | 2.0 | 0.00 | 0.00 | 0.00 | 42 | 1014.1 |
| 20260906045013 | 78 | 35 | 0.0 | 2.0 | 0.00 | 0.00 | 0.00 | 42 | 1014.1 |
| 20260906044514 | 79 | 37 | 0.0 | 2.0 | 0.00 | 0.00 | 0.00 | 41 | 1014.2 |
| 20260906044109 | 79 | 34 | 0.0 | 2.0 | 0.00 | 0.00 | 0.00 | 42 | 1014.0 |
| 20260906043559 | 78 | 35 | 0.0 | 0.0 | 0.00 | 0.00 | 0.00 | 42 | 1014.1 |
| 20260906043517 | 78 | 35 | 0.0 | 0.0 | 0.00 | 0.00 | 0.00 | 42 | 1014.1 |
| 20260906043017 | 78 | 36 | 0.0 | 0.0 | 0.00 | 0.00 | 0.00 | 42 | 1014.0 |
| 20260906042549 | 78 | 35 | 0.0 | 0.0 | 0.00 | 0.00 | 0.00 | 43 | 1014.1 |
| 20260906042101 | 78 | 35 | 0.0 | 0.0 | 0.00 | 0.00 | 0.00 | 41 | 1014.1 |
| 20260906041602 | 78 | 34 | 0.0 | 0.0 | 0.00 | 0.00 | 0.00 | 43 | 1014.0 |
| 20260906041519 | 78 | 34 | 0.0 | 0.0 | 0.00 | 0.00 | 0.00 | 43 | 1014.0 |
| 20260906041053 | 78 | 34 | 0.0 | 0.0 | 0.00 | 0.00 | 0.00 | 43 | 1014.0 |
| 20260906040525 | 78 | 35 | 0.0 | 0.0 | 0.00 | 0.00 | 0.00 | 42 | 1013.9 |
| 20260906040107 | 78 | 35 | 0.0 | 0.0 | 0.00 | 0.00 | 0.00 | 42 | 1013.9 |
| 20260906035541 | 79 | 34 | 0.0 | 1.0 | 0.00 | 0.00 | 0.00 | 43 | 1014.0 |
| 20260906035113 | 78 | 32 | 0.0 | 2.0 | 0.00 | 0.00 | 0.00 | 43 | 1014.0 |
| 20260906034529 | 78 | 34 | 0.0 | 2.0 | 0.00 | 0.00 | 0.00 | 45 | 1014.0 |
| 20260906034102 | 78 | 34 | 0.0 | 1.0 | 0.00 | 0.00 | 0.00 | 45 | 1014.0 |
| 20260906034020 | 78 | 34 | 0.0 | 1.0 | 0.00 | 0.00 | 0.00 | 45 | 1014.0 |
| 20260906033553 | 78 | 35 | 0.0 | 2.0 | 0.00 | 0.00 | 0.00 | 46 | 1014.0 |
| 20260906033053 | 78 | 35 | 0.0 | 2.0 | 0.00 | 0.00 | 0.00 | 46 | 1014.0 |
| 20260906032526 | 78 | 35 | 0.0 | 2.0 | 0.00 | 0.00 | 0.00 | 46 | 1014.0 |
| 20260906032101 | 79 | 36 | 0.0 | 2.0 | 0.00 | 0.00 | 0.00 | 44 | 1013.9 |
| 20260906032018 | 79 | 36 | 0.0 | 2.0 | 0.00 | 0.00 | 0.00 | 44 | 1013.9 |
| 20260906031519 | 79 | 35 | 0.0 | 2.0 | 0.00 | 0.00 | 0.00 | 45 | 1013.9 |
| 20260906031113 | 79 | 35 | 0.0 | 2.0 | 0.00 | 0.00 | 0.00 | 45 | 1013.9 |
| 20260906030601 | 79 | 34 | 0.0 | 3.0 | 0.00 | 0.00 | 0.00 | 46 | 1013.8 |
| 20260906030518 | 79 | 34 | 0.0 | 3.0 | 0.00 | 0.00 | 0.00 | 46 | 1013.8 |
| 20260906030110 | 79 | 37 | 1.0 | 3.0 | 0.00 | 0.00 | 0.00 | 48 | 1013.8 |
| 20260906025541 | 79 | 34 | 3.0 | 4.0 | 0.00 | 0.00 | 0.00 | 48 | 1013.7 |
| 20260906025035 | 79 | 32 | 1.0 | 4.0 | 0.00 | 0.00 | 0.00 | 51 | 1013.8 |
| 20260906024556 | 78 | 36 | 3.0 | 4.0 | 0.00 | 0.00 | 0.00 | 52 | 1013.7 |
| 20260906024514 | 78 | 36 | 3.0 | 4.0 | 0.00 | 0.00 | 0.00 | 52 | 1013.7 |
| 20260906024027 | 79 | 35 | 3.0 | 4.0 | 0.00 | 0.00 | 0.00 | 53 | 1013.7 |
| 20260906023541 | 78 | 35 | 2.0 | 4.0 | 0.00 | 0.00 | 0.00 | 53 | 1013.6 |
| 20260906023042 | 78 | 34 | 2.0 | 4.0 | 0.00 | 0.00 | 0.00 | 52 | 1013.6 |
| 20260906022514 | 79 | 35 | 3.0 | 4.0 | 0.00 | 0.00 | 0.00 | 50 | 1013.5 |
| 20260906022049 | 79 | 34 | 2.0 | 4.0 | 0.00 | 0.00 | 0.00 | 50 | 1013.5 |
| 20260906021548 | 79 | 34 | 3.0 | 5.0 | 0.00 | 0.00 | 0.00 | 49 | 1013.5 |
| 20260906021101 | 79 | 34 | 4.0 | 8.0 | 0.00 | 0.00 | 0.00 | 47 | 1013.6 |
| 20260906020534 | 80 | 35 | 3.0 | 8.0 | 0.00 | 0.00 | 0.00 | 43 | 1013.6 |
| 20260906020056 | 80 | 34 | 5.0 | 12.0 | 0.00 | 0.00 | 0.00 | 41 | 1013.6 |
| 20260906015549 | 81 | 34 | 6.0 | 12.0 | 0.00 | 0.00 | 0.00 | 39 | 1013.5 |
| 20260906015041 | 81 | 35 | 5.0 | 9.0 | 0.00 | 0.00 | 0.00 | 38 | 1013.5 |
| 20260906014521 | 81 | 37 | 6.0 | 9.0 | 0.00 | 0.00 | 0.00 | 39 | 1013.6 |
| 20260906014114 | 81 | 36 | 5.0 | 9.0 | 0.00 | 0.00 | 0.00 | 38 | 1013.6 |
| 20260906014032 | 81 | 36 | 5.0 | 9.0 | 0.00 | 0.00 | 0.00 | 38 | 1013.6 |
| 20260906013546 | 82 | 34 | 6.0 | 9.0 | 0.00 | 0.00 | 0.00 | 36 | 1013.5 |
| 20260906013045 | 83 | 34 | 4.0 | 8.0 | 0.00 | 0.00 | 0.00 | 36 | 1013.5 |
| 20260906012517 | 83 | 34 | 5.0 | 9.0 | 0.00 | 0.00 | 0.00 | 33 | 1013.6 |
| 20260906012051 | 82 | 36 | 5.0 | 9.0 | 0.00 | 0.00 | 0.00 | 35 | 1013.7 |
| 20260906011529 | 83 | 35 | 5.0 | 9.0 | 0.00 | 0.00 | 0.00 | 35 | 1013.6 |
| 20260906011043 | 83 | 35 | 4.0 | 9.0 | 0.00 | 0.00 | 0.00 | 34 | 1013.6 |
| 20260906010521 | 83 | 34 | 6.0 | 9.0 | 0.00 | 0.00 | 0.00 | 34 | 1013.5 |
| 20260906010059 | 83 | 35 | 6.0 | 8.0 | 0.00 | 0.00 | 0.00 | 36 | 1013.5 |
| 20260906010016 | 83 | 35 | 6.0 | 8.0 | 0.00 | 0.00 | 0.00 | 36 | 1013.5 |
| 20260906005514 | 84 | 35 | 5.0 | 9.0 | 0.00 | 0.00 | 0.00 | 35 | 1013.5 |
| 20260906005029 | 84 | 34 | 4.0 | 10.0 | 0.00 | 0.00 | 0.00 | 36 | 1013.5 |
| 20260906004527 | 84 | 35 | 6.0 | 10.0 | 0.00 | 0.00 | 0.00 | 35 | 1013.5 |
| 20260906004101 | 84 | 32 | 6.0 | 9.0 | 0.00 | 0.00 | 0.00 | 38 | 1013.5 |
| 20260906003532 | 85 | 36 | 5.0 | 8.0 | 0.00 | 0.00 | 0.00 | 37 | 1013.5 |
| 20260906003053 | 85 | 36 | 5.0 | 8.0 | 0.00 | 0.00 | 0.00 | 38 | 1013.5 |
| 20260906002601 | 85 | 34 | 5.0 | 8.0 | 0.00 | 0.00 | 0.00 | 35 | 1013.4 |
| 20260906002113 | 84 | 35 | 5.0 | 9.0 | 0.00 | 0.00 | 0.00 | 37 | 1013.4 |
| 20260906001552 | 84 | 35 | 7.0 | 9.0 | 0.00 | 0.00 | 0.00 | 38 | 1013.4 |
| 20260906001104 | 85 | 34 | 6.0 | 9.0 | 0.00 | 0.00 | 0.00 | 38 | 1013.5 |
| 20260906001021 | 85 | 34 | 6.0 | 9.0 | 0.00 | 0.00 | 0.00 | 38 | 1013.5 |
| 20260906000515 | 85 | 35 | 4.0 | 11.0 | 0.00 | 0.00 | 0.00 | 39 | 1013.4 |
| 20260906000058 | 85 | 36 | 6.0 | 11.0 | 0.00 | 0.00 | 0.00 | 38 | 1013.4 |
| 20260905235549 | 84 | 34 | 6.0 | 11.0 | 0.00 | 0.00 | 0.00 | 37 | 1013.5 |
| 20260905235101 | 84 | 32 | 6.0 | 12.0 | 0.00 | 0.00 | 0.00 | 40 | 1013.5 |
| 20260905234540 | 84 | 34 | 6.0 | 12.0 | 0.00 | 0.00 | 0.00 | 40 | 1013.5 |
| 20260905234052 | 85 | 32 | 8.0 | 13.0 | 0.00 | 0.00 | 0.00 | 38 | 1013.4 |
| 20260905233604 | 85 | 36 | 7.0 | 13.0 | 0.00 | 0.00 | 0.00 | 36 | 1013.5 |
| 20260905233522 | 85 | 36 | 7.0 | 13.0 | 0.00 | 0.00 | 0.00 | 36 | 1013.5 |
| 20260905233104 | 85 | 35 | 7.0 | 11.0 | 0.00 | 0.00 | 0.00 | 34 | 1013.4 |
| 20260905233021 | 85 | 35 | 7.0 | 11.0 | 0.00 | 0.00 | 0.00 | 34 | 1013.4 |
| 20260905232515 | 85 | 32 | 7.0 | 11.0 | 0.00 | 0.00 | 0.00 | 31 | 1013.4 |
| 20260905232029 | 85 | 32 | 7.0 | 11.0 | 0.00 | 0.00 | 0.00 | 31 | 1013.4 |
| 20260905231526 | 86 | 32 | 6.0 | 11.0 | 0.00 | 0.00 | 0.00 | 29 | 1013.4 |
| 20260905231042 | 86 | 34 | 7.0 | 11.0 | 0.00 | 0.00 | 0.00 | 29 | 1013.4 |
| 20260905230556 | 85 | 35 | 8.0 | 10.0 | 0.00 | 0.00 | 0.00 | 29 | 1013.5 |
| 20260905230513 | 85 | 35 | 8.0 | 10.0 | 0.00 | 0.00 | 0.00 | 29 | 1013.5 |
| 20260905230056 | 85 | 35 | 6.0 | 10.0 | 0.00 | 0.00 | 0.00 | 31 | 1013.5 |
| 20260905230013 | 85 | 35 | 6.0 | 10.0 | 0.00 | 0.00 | 0.00 | 31 | 1013.5 |
| 20260905225549 | 86 | 36 | 7.0 | 10.0 | 0.00 | 0.00 | 0.00 | 32 | 1013.6 |
| 20260905225041 | 85 | 35 | 6.0 | 11.0 | 0.00 | 0.00 | 0.00 | 32 | 1013.6 |
| 20260905224603 | 86 | 35 | 8.0 | 11.0 | 0.00 | 0.00 | 0.00 | 31 | 1013.6 |
| 20260905224108 | 85 | 34 | 7.0 | 12.0 | 0.00 | 0.00 | 0.00 | 33 | 1013.7 |
| 20260905224025 | 85 | 34 | 7.0 | 12.0 | 0.00 | 0.00 | 0.00 | 33 | 1013.7 |
| 20260905223559 | 85 | 32 | 7.0 | 12.0 | 0.00 | 0.00 | 0.00 | 34 | 1013.7 |
| 20260905223109 | 86 | 35 | 8.0 | 12.0 | 0.00 | 0.00 | 0.00 | 35 | 1013.8 |
| 20260905222559 | 86 | 34 | 7.0 | 12.0 | 0.00 | 0.00 | 0.00 | 36 | 1013.8 |
| 20260905222111 | 85 | 35 | 7.0 | 12.0 | 0.00 | 0.00 | 0.00 | 37 | 1013.8 |
| 20260905221547 | 85 | 34 | 7.0 | 12.0 | 0.00 | 0.00 | 0.00 | 36 | 1013.9 |
| 20260905221059 | 85 | 35 | 8.0 | 12.0 | 0.00 | 0.00 | 0.00 | 36 | 1013.9 |